DW2150 Weather Reports


time (UTC)temp
C
wind
direction
speed
KPH
gust
KPH
rain 1hr
cm
rain 24hr
cm
rain mn
cm
humidity
%
barometer
mb
20260505051611 21 346 0.0 0.0 0.00 0.00 0.00 90 1011.2
20260505051107 21 346 0.0 0.0 0.00 0.00 0.00 90 1011.2
20260505050558 21 346 0.0 0.0 0.00 0.00 0.00 90 1011.2
20260505041438 21 346 0.0 0.0 0.00 0.00 0.00 89 1011.5
20260505040935 21 346 0.0 0.0 0.00 0.00 0.00 89 1011.5
20260505040431 21 346 0.0 0.0 0.00 0.00 0.00 89 1011.9
20260505035928 21 346 0.0 0.0 0.00 0.00 0.00 89 1011.9
20260505035354 21 346 0.0 0.0 0.00 0.00 0.00 89 1011.9
20260505034820 21 346 0.0 0.0 0.00 0.00 0.00 88 1011.9
20260505034317 21 346 0.0 1.6 0.00 0.00 0.00 88 1011.9
20260505033814 21 346 0.0 1.6 0.00 0.00 0.00 88 1011.9
20260505033311 21 346 0.0 1.6 0.00 0.00 0.00 88 1011.9
20260505032808 21 346 0.0 1.6 0.00 0.00 0.00 88 1011.9
20260505032305 21 346 0.0 0.0 0.00 0.00 0.00 87 1011.9
20260505031731 21 346 0.0 0.0 0.00 0.00 0.00 87 1011.9
20260505031228 21 346 0.0 0.0 0.00 0.00 0.00 87 1011.9
20260505030725 21 346 0.0 1.6 0.00 0.00 0.00 87 1011.9
20260505030222 21 346 0.0 1.6 0.00 0.00 0.00 87 1011.9
20260505025719 21 346 0.0 3.2 0.00 0.00 0.00 87 1011.9
20260505025216 21 346 0.0 4.8 0.00 0.00 0.00 87 1011.9
20260505024712 21 304 0.0 4.8 0.00 0.00 0.00 86 1011.9
20260505024210 21 304 0.0 4.8 0.00 0.00 0.00 86 1011.9
20260505023706 21 98 0.0 0.0 0.00 0.00 0.00 86 1011.9
20260505023203 21 91 0.0 0.0 0.00 0.00 0.00 86 1011.9
20260505022700 21 91 0.0 3.2 0.00 0.00 0.00 86 1011.9
20260505022157 22 91 0.0 3.2 0.00 0.00 0.00 86 1011.9
20260505021653 22 91 0.0 3.2 0.00 0.00 0.00 86 1011.9
20260505021150 22 91 0.0 3.2 0.00 0.00 0.00 86 1011.9
20260505020647 22 113 0.0 1.6 0.00 0.00 0.00 86 1011.9
20260505020144 22 113 0.0 1.6 0.00 0.00 0.00 85 1011.9
20260505015601 22 113 0.0 1.6 0.00 0.00 0.00 85 1011.5
20260505015057 22 113 0.0 1.6 0.00 0.00 0.00 85 1011.5
20260505014538 22 113 0.0 1.6 0.00 0.00 0.00 85 1011.5
20260505014002 22 113 1.6 1.6 0.00 0.00 0.00 85 1011.5
20260505013500 22 113 0.0 1.6 0.00 0.00 0.00 85 1011.5
20260505012957 22 113 1.6 1.6 0.00 0.00 0.00 85 1011.9
20260505012453 22 182 0.0 1.6 0.00 0.00 0.00 85 1011.9
20260505011950 22 182 1.6 1.6 0.00 0.00 0.00 84 1011.5
20260505011446 22 219 1.6 4.8 0.00 0.00 0.00 84 1011.5
20260505010943 22 220 1.6 4.8 0.00 0.00 0.00 84 1011.5
20260505010440 22 220 1.6 4.8 0.00 0.00 0.00 84 1011.5
20260505005937 22 230 3.2 4.8 0.00 0.00 0.00 83 1011.5
20260505005434 22 145 1.6 3.2 0.00 0.00 0.00 83 1011.2
20260505004930 22 16 1.6 3.2 0.00 0.00 0.00 83 1011.5
20260505004427 23 15 1.6 3.2 0.00 0.00 0.00 83 1011.2
20260505003924 23 107 1.6 3.2 0.00 0.00 0.00 82 1011.2
20260505003422 23 107 0.0 3.2 0.00 0.00 0.00 82 1011.5
20260505002919 23 107 1.6 4.8 0.00 0.00 0.00 81 1011.5
20260505002242 23 169 1.6 4.8 0.00 0.00 0.00 81 1011.5
20260505001739 23 169 1.6 4.8 0.00 0.00 0.00 81 1011.5
20260505001235 23 163 1.6 3.2 0.00 0.00 0.00 80 1011.5
20260505000733 23 299 0.0 3.2 0.00 0.00 0.00 80 1011.5
20260505000229 23 299 0.0 4.8 0.00 0.00 0.00 80 1011.5
20260504235726 23 303 1.6 4.8 0.00 0.00 0.00 80 1011.5
20260504235222 24 165 1.6 4.8 0.00 0.00 0.00 80 1011.5
20260504234720 24 143 1.6 4.8 0.00 0.00 0.00 80 1011.5
20260504234217 24 102 1.6 4.8 0.00 0.00 0.00 80 1011.5
20260504233714 24 131 1.6 4.8 0.00 0.00 0.00 80 1011.5
20260504233211 24 133 1.6 4.8 0.00 0.00 0.00 80 1011.5
20260504232708 24 149 1.6 4.8 0.00 0.00 0.00 80 1011.9
20260504232146 24 149 1.6 4.8 0.00 0.00 0.00 80 1011.9
20260504231623 24 163 1.6 4.8 0.00 0.00 0.00 80 1011.9
20260504231121 24 163 1.6 4.8 0.00 0.00 0.00 80 1011.9
20260504230559 24 161 1.6 4.8 0.00 0.00 0.00 79 1012.2
20260504230056 24 210 3.2 4.8 0.00 0.00 0.00 79 1012.2
20260504225537 24 121 1.6 4.8 0.00 0.00 0.00 79 1012.2
20260504225016 24 77 1.6 4.8 0.00 0.00 0.00 79 1012.2
20260504224511 24 76 1.6 4.8 0.00 0.00 0.00 79 1012.2
20260504224008 24 10 1.6 4.8 0.00 0.00 0.00 79 1012.2
20260504223434 24 19 1.6 4.8 0.00 0.00 0.00 80 1012.5
20260504222901 24 90 1.6 3.2 0.00 0.00 0.00 80 1012.5
20260504222358 24 115 1.6 3.2 0.00 0.00 0.00 80 1012.5
20260504221854 24 115 1.6 3.2 0.00 0.00 0.00 79 1012.5
20260504221258 24 115 1.6 4.8 0.00 0.00 0.00 79 1012.5
20260504220755 24 115 1.6 4.8 0.00 0.00 0.00 79 1012.5
20260504220252 25 116 1.6 4.8 0.00 0.00 0.00 78 1012.5
20260504215749 25 150 1.6 4.8 0.00 0.00 0.00 78 1012.9
20260504215246 25 331 0.0 6.4 0.00 0.00 0.00 78 1012.9
20260504214743 25 253 1.6 6.4 0.00 0.00 0.00 78 1012.9
20260504214240 25 253 1.6 6.4 0.00 0.00 0.00 78 1012.9
20260504213737 25 181 3.2 6.4 0.00 0.00 0.00 78 1012.9
20260504213233 25 165 1.6 4.8 0.00 0.00 0.00 76 1012.9
20260504212659 25 248 1.6 4.8 0.00 0.00 0.00 77 1012.9
20260504212137 25 145 1.6 4.8 0.00 0.00 0.00 77 1012.9
20260504211634 25 198 3.2 6.4 0.00 0.00 0.00 77 1012.9
20260504211028 25 169 1.6 6.4 0.00 0.00 0.00 78 1013.2
20260504210525 25 169 1.6 6.4 0.00 0.00 0.00 77 1013.2
20260504205951 26 200 1.6 6.4 0.00 0.00 0.00 75 1013.2
20260504205448 26 161 1.6 3.2 0.00 0.00 0.00 77 1013.2
20260504204945 25 160 1.6 4.8 0.00 0.00 0.00 77 1013.2
20260504204411 26 159 1.6 4.8 0.00 0.00 0.00 76 1013.5
20260504203837 26 147 1.6 4.8 0.00 0.00 0.00 75 1013.5
20260504203333 26 126 1.6 4.8 0.00 0.00 0.00 73 1013.5
20260504202759 26 179 1.6 3.2 0.00 0.00 0.00 76 1013.5
20260504202225 26 200 1.6 6.4 0.00 0.00 0.00 75 1013.5
20260504201721 26 234 1.6 6.4 0.00 0.00 0.00 74 1013.5
20260504201159 26 148 1.6 6.4 0.00 0.00 0.00 73 1013.9
20260504200656 26 150 3.2 6.4 0.00 0.00 0.00 74 1013.9
20260504200153 26 73 1.6 4.8 0.00 0.00 0.00 72 1013.9
20260504195649 26 73 1.6 4.8 0.00 0.00 0.00 74 1013.9
20260504195114 26 131 1.6 4.8 0.00 0.00 0.00 72 1013.9
20260504194611 26 130 1.6 4.8 0.00 0.00 0.00 74 1013.9
20260504194108 27 124 3.2 4.8 0.00 0.00 0.00 73 1013.9
20260504193605 27 34 0.0 3.2 0.00 0.00 0.00 71 1014.2
20260504193103 27 19 0.0 8.0 0.00 0.00 0.00 72 1014.2
20260504192559 26 355 1.6 8.0 0.00 0.00 0.00 75 1014.2
20260504192025 26 300 1.6 8.0 0.00 0.00 0.00 71 1014.2
20260504191451 27 220 3.2 4.8 0.00 0.00 0.00 72 1014.2
20260504190948 27 187 1.6 4.8 0.00 0.00 0.00 73 1014.2
20260504190412 26 337 1.6 4.8 0.00 0.00 0.00 71 1014.6
20260504185909 26 133 1.6 4.8 0.00 0.00 0.00 72 1014.6
20260504185407 27 96 1.6 6.4 0.00 0.00 0.00 72 1014.6
20260504184903 27 58 1.6 6.4 0.00 0.00 0.00 72 1014.6
20260504184359 27 154 1.6 6.4 0.00 0.00 0.00 71 1014.6
20260504183825 27 127 3.2 6.4 0.00 0.00 0.00 71 1014.2
20260504183322 27 350 1.6 4.8 0.00 0.00 0.00 70 1014.6
20260504182747 27 256 1.6 4.8 0.00 0.00 0.00 72 1014.9
20260504182244 27 282 1.6 6.4 0.00 0.00 0.00 72 1014.9
20260504181740 27 69 1.6 6.4 0.00 0.00 0.00 70 1014.9
20260504181205 27 99 1.6 6.4 0.00 0.00 0.00 72 1014.9
20260504180701 26 155 1.6 6.4 0.00 0.00 0.00 72 1014.9
20260504180150 26 117 0.0 4.8 0.00 0.00 0.00 72 1014.9
20260504175646 26 64 0.0 4.8 0.00 0.00 0.00 72 1014.9
20260504175140 26 102 1.6 4.8 0.00 0.00 0.00 73 1015.2
20260504174637 26 154 1.6 4.8 0.00 0.00 0.00 73 1015.2
20260504174132 26 155 1.6 4.8 0.00 0.00 0.00 72 1015.2
20260504173629 26 172 1.6 4.8 0.00 0.00 0.00 72 1015.6
20260504173125 26 240 1.6 4.8 0.00 0.00 0.00 73 1015.6
20260504172621 26 98 1.6 4.8 0.00 0.00 0.00 71 1015.6
20260504172100 26 89 1.6 4.8 0.00 0.00 0.00 72 1015.6
20260504171556 26 331 1.6 4.8 0.00 0.00 0.00 74 1015.6
20260504171034 26 78 3.2 4.8 0.00 0.00 0.00 71 1015.6
20260504170531 26 299 1.6 6.4 0.00 0.00 0.00 74 1015.6
20260504160253 25 48 1.6 3.2 0.00 0.00 0.00 74 1016.3
20260504150751 22 188 1.6 3.2 0.00 0.00 0.00 82 1016.3
20260504150217 23 198 1.6 3.2 0.00 0.00 0.00 80 1016.6
20260504141147 21 291 1.6 4.8 0.00 0.00 0.00 84 1016.3
20260504140625 21 292 1.6 3.2 0.00 0.00 0.00 84 1016.3
20260504140121 21 292 0.0 4.8 0.00 0.00 0.00 85 1016.3
20260504130524 17 326 0.0 0.0 0.00 0.00 0.00 90 1016.6
20260504110526 15 326 0.0 0.0 0.00 0.00 0.00 89 1015.9
20260504100348 15 326 0.0 0.0 0.00 0.00 0.00 88 1016.3
20260504081940 15 326 0.0 0.0 0.00 0.00 0.00 86 1016.9
20260504081405 15 326 0.0 0.0 0.00 0.00 0.00 86 1016.9
20260504080902 15 326 0.0 0.0 0.00 0.00 0.00 85 1016.9
20260504080359 15 326 0.0 0.0 0.00 0.00 0.00 85 1017.3
20260504070113 16 326 0.0 0.0 0.00 0.00 0.00 85 1017.9